Location: Unspecified
(0.0000°N, 0.0000°E)
Time: 18:26:40
(UTC+01:00)

Cosmos 2237 Rocket - Visible Passes

Search period start: 30 October 2014 00:00
Search period end: 09 November 2014 00:00
Orbit: 836 x 849 km, 71.0° (Epoch: 30 October)

Date Brightness Start Highest point End Pass type
(mag) Time Alt. Az. Time Alt. Az. Time Alt. Az.
30 Oct 2.2 05:33:04 14° NNW 05:37:50 61° WSW 05:43:22 10° S visible
31 Oct 2.1 05:20:06 28° NNW 05:23:05 65° WSW 05:28:39 10° S visible
01 Nov 2.0 05:06:59 50° NW 05:08:21 69° WSW 05:13:56 10° S visible
02 Nov 2.0 04:53:43 74° WSW 04:53:43 74° WSW 04:59:12 10° S visible
03 Nov 2.7 04:40:19 51° S 04:40:19 51° S 04:44:28 10° SSE visible
04 Nov 3.5 04:26:48 32° S 04:26:48 32° S 04:29:44 10° SSE visible
05 Nov 4.1 04:13:10 22° SSE 04:13:10 22° SSE 04:15:00 10° SSE visible
06 Nov 4.6 03:59:27 14° SSE 03:59:27 14° SSE 04:00:15 10° SSE visible
